Location: ???????
(55.9644°N, 37.6617°E)
Time: 13:24:30
(UTC+00:00)

Daily predictions for brighter satellites

Satellite Brightness Start Highest point End
(mag) Time Altitude Azimuth Time Altitude Azimuth Time Altitude Azimuth
NOAA 6 4.5 14:24:22 10° S 14:29:34 72° WSW 14:34:47 10° NNW
H-2A R/B 3.6 14:26:17 10° S 14:29:54 55° W 14:33:35 10° NNW
Cosmos 2098 Rocket 4.1 14:27:27 10° NNW 14:30:20 34° W 14:33:01 10° SSW
Cosmos 371 Rocket 4.3 14:26:00 10° SW 14:30:41 46° NW 14:35:25 10° NNE
Cosmos 1953 2.7 14:26:50 10° SSW 14:30:47 70° WNW 14:34:47 10° N
NOSS 2-1 (C) 3.4 14:29:21 10° WSW 14:32:42 62° NNW 14:36:41 10° NE
Meteor 2-16 Rocket 4.5 14:27:18 10° N 14:33:21 60° ENE 14:39:22 10° SSE
Cosmos 1606 Rocket 4.0 14:29:50 10° SSE 14:33:56 40° E 14:38:05 10° NNE
FengYun 1-2 T 4.3 14:31:07 10° SSE 14:36:42 64° ENE 14:42:16 10° NNW
NOSS 2-1 (D) 3.5 14:34:38 10° WSW 14:38:00 58° NNW 14:41:59 10° NE
Cosmos 1943 Rocket 3.4 14:34:08 10° WSW 14:39:15 36° NW 14:44:22 10° NNE
USA 305 3.6 14:35:51 10° W 14:40:05 54° SSW 14:44:16 10° ESE
Aureole 3 Rocket 4.3 14:36:23 10° SE 14:40:26 31° E 14:45:51 10° NNE
USA 215 3.3 14:36:09 10° E 14:42:43 84° N 14:49:17 10° W
Cosmos 292 Rocket 4.3 14:38:21 10° S 14:42:47 39° ESE 14:47:17 10° NE
YAOGAN 6 3.1 14:39:34 10° S 14:43:14 69° WSW 14:46:57 10° NNW
Cosmos 1726 3.8 14:40:12 10° SW 14:43:40 36° WNW 14:47:09 10° N
ATLAS 2AS CENTAUR R/B 3.2 14:36:07 10° WNW 14:43:47 54° NNE 14:50:56 10° E
Cosmos 2219 3.3 14:38:29 10° NW 14:44:18 90° WSW 14:50:05 10° SSE
Cosmos 2266 Rocket 4.5 14:38:42 10° NNW 14:44:53 68° W 14:51:09 10° S
SeaSat 1 3.5 14:41:46 10° E 14:45:54 27° NNE 14:50:02 10° NNW
H-2A R/B 3.1 14:41:58 10° ESE 14:46:24 26° NE 14:50:51 10° N
USA 306 3.7 14:42:21 10° W 14:46:33 52° SSW 14:50:42 10° ESE
COSMOS 2455 4.1 14:42:35 10° WNW 14:47:48 29° N 14:53:01 10° NE
CZ-4C R/B 3.1 14:45:46 10° NNE 14:49:02 75° WNW 14:52:22 10° SSW
ATLAS 5 CENTAUR R/B 2.5 14:44:53 10° W 14:49:09 47° NNW 14:54:11 10° NE
Cosmos 1455 4.0 14:48:46 10° ESE 14:50:24 12° E 14:52:03 10° NE
Cosmos 2082 3.8 14:45:53 10° NNW 14:51:34 58° NE 14:57:14 10° SE
Cosmos 1331 Rocket 4.1 14:47:26 10° S 14:52:29 57° ESE 14:57:33 10° NNE
SMAP 3.4 14:48:38 10° S 14:53:16 72° WSW 14:57:58 10° NNW
Okean-O 3.2 14:49:23 10° SE 14:53:25 35° ENE 14:57:27 10° N
H-2A R/B 4.3 14:49:51 10° S 14:54:06 41° W 14:58:23 10° NNW
Cosmos 1244 Rocket 4.5 14:49:44 10° N 14:55:57 70° ENE 15:02:11 10° SSE
Cosmos 2278 Rocket 4.1 14:52:05 10° NW 14:56:00 19° N 14:59:55 10° NE
CSL-04 DEB 4.3 14:52:43 10° NNE 14:56:42 74° ESE 15:00:36 10° SSW
Lacrosse 5 1.9 14:52:06 10° W 14:57:12 79° N 15:01:48 13° E
Cosmos 1656 Rocket 4.4 14:54:15 10° SW 14:59:44 53° NW 15:05:20 10° NNE
Cosmos 1953 Rocket 3.6 14:55:18 10° NNW 14:59:45 86° WSW 15:04:12 10° S
ARGOS 4.2 14:56:06 10° ESE 15:00:31 26° NE 15:04:57 10° N
Cosmos 968 Rocket 3.4 14:55:43 10° NNW 15:00:59 75° ENE 15:06:11 10° SE
GEOS 3 Rocket 3.9 14:55:44 10° ESE 15:01:00 57° NNE 15:06:19 10° NW
Cosmos 1656 4.4 14:56:59 10° SSE 15:01:51 31° ESE 15:06:46 10° NE
ADEOS Rocket 3.3 14:55:30 10° NNE 15:01:51 88° WNW 15:08:54 10° SSW
Cosmos 1844 Rocket 4.3 15:00:32 10° NNW 15:04:39 20° NNE 15:08:21 11° ENE
Feng Yun 1-1 Rocket 4.4 15:01:26 10° SSE 15:07:22 82° ENE 15:13:20 10° NNW
Cosmos 1408 3.2 15:04:08 10° N 15:07:31 35° ENE 15:10:55 10° SE
USA 281 4.0 15:02:08 10° SSE 15:08:35 57° WSW 15:15:05 10° NW
CZ-4B R/B 4.2 15:04:14 10° S 15:09:40 53° WSW 15:15:03 10° NNW
GENESIS II 4.3 15:06:05 10° SW 15:10:04 65° SE 15:13:31 14° NE
Cosmos 2058 Rocket 3.3 15:07:16 10° SSE 15:11:35 48° E 15:15:57 10° NNE
CZ-4C R/B 3.1 15:07:08 10° WNW 15:13:16 50° NNE 15:19:15 16° E
SL-08 ROCKET BODY 4.5 15:07:36 10° N 15:13:39 60° ENE 15:19:44 10° SSE
Cosmos 2227 Rocket 2.5 15:09:47 10° NW 15:15:27 73° WSW 15:21:06 10° SSE
ERBS 2.3 15:12:27 10° W 15:15:48 72° N 15:17:55 21° E
Cosmos 1076 Rocket 4.0 15:12:52 10° N 15:16:51 38° ENE 15:20:50 10° SE
IRS-1C Rocket 4.0 15:12:08 10° SSE 15:17:25 80° ENE 15:22:43 10° NNW
Cosmos 2263 Rocket 2.8 15:12:22 10° NNW 15:17:39 37° NE 15:21:42 16° E
FALCON 9 DEB 4.4 15:14:55 10° SSW 15:17:40 26° SSE 15:19:11 18° ESE
SJ 16-02 3.2 15:16:10 10° N 15:18:40 15° NE 15:19:44 14° NE
Cosmos 1689 Rocket 2.9 15:17:46 18° NE 15:19:10 27° E 15:21:42 10° SSE
Cosmos 1818 4.2 15:14:38 10° WSW 15:19:57 52° NNW 15:25:06 11° NE
CSL-04 Rocket 4.1 15:16:16 10° SE 15:21:27 43° ENE 15:26:36 10° N
Cosmos 1892 2.6 15:19:02 10° N 15:22:56 71° ENE 15:26:48 10° SSE
Cosmos 1110 Rocket 4.1 15:17:46 10° SSW 15:23:02 84° WNW 15:28:16 10° NNE
FALCON 9 DEB 4.0 15:20:49 10° W 15:24:07 43° SSW 15:26:28 17° SE
Cosmos 1302 Rocket 4.1 15:19:53 10° S 15:25:03 58° ESE 15:30:16 10° NNE
H-2A R/B 2.9 15:22:23 10° N 15:26:27 50° WNW 15:30:26 10° SW
FALCON 9 DEB 4.2 15:24:25 10° SW 15:27:15 29° SSE 15:28:26 22° ESE
Cosmos 1939 Rocket 2.8 15:23:38 10° SSE 15:27:35 88° WSW 15:31:30 10° NNW
COSMO-SKYMED 1 2.8 15:23:56 10° NNE 15:28:09 47° E 15:32:21 10° S
USA 307 4.2 15:26:06 10° W 15:30:04 37° SSW 15:34:01 10° SE
Cosmos 1486 Rocket 4.4 15:24:56 10° NNW 15:30:16 70° WSW 15:35:34 10° SSE
NOSS 2-1 (E) 4.3 15:28:10 10° W 15:31:31 38° NNW 15:34:32 16° NE
SAR-Lupe-4 3.5 15:29:14 10° NNE 15:32:49 59° ESE 15:36:21 10° S
Cosmos 1697 Rocket 3.4 15:29:49 10° SSE 15:34:39 31° ESE 15:37:53 18° ENE
USA 308 4.2 15:31:05 10° W 15:35:01 36° SSW 15:38:52 10° SE
BREEZE-M R/B 4.3 15:33:46 10° WSW 15:37:19 40° S 15:42:10 16° ESE
CZ-4B R/B 1.4 15:34:46 10° NNE 15:38:01 73° WNW 15:41:10 10° SSW
Cosmos 1300 3.1 15:34:18 10° SSW 15:38:05 65° WNW 15:41:55 10° N
Cosmos 1825 2.3 15:35:05 10° N 15:38:47 49° ENE 15:42:28 10° SSE
Meteor 2-8 Rocket 4.4 15:32:53 10° S 15:38:59 74° E 15:45:09 10° NNE
Cosmos 1400 Rocket 2.7 15:34:59 10° S 15:39:05 80° ESE 15:43:10 10° NNE
S3M 4.1 15:33:44 10° SSE 15:39:36 49° E 15:45:32 10° NNE
ERS-2 2.4 15:36:42 10° NNE 15:40:21 71° WNW 15:43:59 10° SSW
Cosmos 1503 Rocket 4.0 15:35:16 10° NNW 15:40:31 90° ENE 15:45:48 10° SSE
Helios 1A Rocket 2.9 15:40:25 10° SSE 15:44:33 84° WSW 15:48:40 10° NNW
YAOGAN 1 2.4 15:41:40 10° SSE 15:45:59 74° ENE 15:50:20 10° NNW
Meteor 2-1 Rocket 4.3 15:42:32 10° SSE 15:47:47 48° E 15:53:07 10° NNE
Cosmos 1417 Rocket 4.4 15:43:36 10° S 15:49:49 69° E 15:56:09 10° NNE
Cosmos 1340 4.1 15:46:22 10° NNW 15:49:56 40° W 15:53:29 10° SSW
SAR-Lupe-1 3.9 15:47:03 10° NNE 15:50:40 85° ESE 15:54:14 10° SSW
Cosmos 44 3.2 15:47:09 10° SW 15:51:47 89° NNW 15:55:01 22° NE
Okean 3 Rocket 4.4 15:48:13 10° N 15:52:03 29° ENE 15:52:03 29° ENE
SKYMED 3 4.4 15:47:54 10° NNE 15:52:17 75° ESE 15:56:38 10° S
Cosmos 1812 Rocket 4.0 15:48:25 10° SSE 15:52:30 38° E 15:56:33 10° NNE
Okean O Rocket 4.2 15:49:34 10° SW 15:53:04 23° W 15:56:34 10° NW
Cosmos 1354 Rocket 4.0 15:48:00 10° NNW 15:53:17 83° WSW 15:58:34 10° SSE
CZ-2D R/B 3.6 15:49:46 10° S 15:53:33 65° WSW 15:57:21 10° NNW
Cosmos 2228 4.4 15:50:41 10° SW 15:54:43 40° WNW 15:58:49 10° N
Cosmos 2297 Rocket 3.8 15:49:34 10° NW 15:54:43 36° WSW 15:59:50 10° S
Cosmos 1726 Rocket 4.4 15:50:58 10° SSW 15:55:14 51° WNW 15:59:34 10° N
Resurs 01 Rocket 3.7 15:56:30 13° NNE 15:56:30 13° NNE 15:57:33 10° NNE
CZ-4 R/B 1.3 15:51:43 10° SSE 15:55:35 80° WSW 15:59:28 10° NNW
Aureole 3 3.1 15:53:43 10° SSW 15:56:40 61° WNW 15:59:43 10° N
Timation 1 Rocket 4.4 15:50:48 10° NW 15:56:52 84° SW 16:02:54 10° SSE
Cosmos 1346 Rocket 3.2 15:53:06 10° NNW 15:57:04 66° W 16:01:02 10° S
Cosmos 2058 3.0 15:53:01 10° NNW 15:57:07 75° W 16:01:13 10° S
Cosmos 2369 Rocket 4.0 15:53:10 10° W 15:57:50 25° NNW 16:02:32 10° NNE
Cosmos 1980 Rocket 3.2 15:53:43 10° SSE 15:57:31 26° ESE 15:57:31 26° ESE
SL-4 R/B 3.0 15:56:21 10° W 15:59:33 32° SSW 16:00:57 24° SSE
Cosmos 2151 3.1 15:55:38 10° N 15:59:45 48° ENE 16:00:54 37° ESE
Meteor 2-15 Rocket 4.4 15:54:43 10° S 16:00:44 60° E 16:06:47 10° NNE
PSLV R/B 3.8 15:56:54 10° NNE 16:01:07 75° ESE 16:05:16 10° S
Cosmos 1992 Rocket 4.1 15:56:39 10° S 16:01:41 51° ESE 16:05:12 19° NE
SJ-11-01 4.1 15:58:13 10° SSE 16:02:53 74° ENE 16:07:35 10° NNW
CSL-04 Debris 4.1 15:58:48 10° SSE 16:04:16 81° ENE 16:09:47 10° NNW
CZ-2C R/B 3.3 15:58:42 10° SSE 16:04:28 85° WSW 16:10:02 10° NNW
Cosmos 1553 Rocket 4.0 16:01:39 10° S 16:08:00 87° W 16:14:17 10° NNE
CRYOSAT 2 4.3 16:03:40 10° N 16:08:32 64° E 16:13:22 10° S
Cosmos 2227 4.1 16:06:32 10° NNW 16:12:11 68° NE 16:14:40 34° SE
Meteor 2-15 4.3 16:06:04 10° S 16:12:14 84° E 16:18:23 10° NNE
Cosmos 1315 Rocket 2.7 16:08:48 10° S 16:12:45 68° E 16:15:47 17° NNE
NOSS 3-4 (A) 3.8 16:06:29 10° NW 16:13:14 84° SW 16:18:11 23° SE
NOSS 3-4 (C) 3.8 16:06:35 10° NW 16:13:20 85° SW 16:18:15 24° SE
Ariane Rocket 3.4 16:13:28 40° E 16:14:17 43° ENE 16:19:07 10° N
SKYMED 2 3.8 16:11:59 10° NNE 16:16:20 70° WNW 16:20:39 10° SSW
Meteor 2-10 Rocket 3.4 16:12:01 10° S 16:17:15 84° ESE 16:22:21 10° NNE
Cosmos 220 Rocket 3.9 16:13:19 10° SSW 16:17:41 69° ESE 16:19:08 41° NE
Cosmos 2360 4.4 16:15:37 10° S 16:21:05 49° ESE 16:22:32 40° ENE
SeaSat 1 2.3 16:20:51 35° SE 16:22:58 85° NE 16:27:57 10° NNW
Cosmos 1943 Rocket 4.2 16:20:48 10° WNW 16:24:37 19° NNW 16:28:10 11° NNE
H-2A R/B 2.2 16:19:53 10° SSE 16:25:21 80° WSW 16:30:51 10° NNW
Cosmos 1455 2.1 16:21:35 10° SSW 16:25:23 86° WNW 16:28:40 14° N
USA 215 3.2 16:22:49 36° ESE 16:25:47 89° S 16:32:23 10° WNW
Cosmos 1441 Rocket 4.2 16:22:08 10° N 16:24:39 35° NNE 16:24:39 35° NNE
NOSS 3-3 (A) 4.1 16:20:51 10° SSW 16:26:39 54° SE 16:28:42 39° ENE
MOS 1 Rocket 3.2 16:22:06 10° NNE 16:26:45 63° ESE 16:31:38 10° S
NOSS 3-3 (C) 4.1 16:20:58 10° SSW 16:26:45 54° SE 16:28:46 40° ENE
Aureole 3 Rocket 4.5 16:23:00 10° SW 16:27:31 51° WNW 16:33:55 10° N
IRS-1A Rocket 4.3 16:27:59 45° ESE 16:29:19 57° ENE 16:34:43 10° NNW
Okean-O 4.0 16:25:42 10° SSW 16:29:52 40° W 16:34:05 10° NNW
Cosmos 2278 4.1 16:26:06 10° S 16:30:46 42° SE 16:30:46 42° SE
MOS 1 4.3 16:31:54 48° ESE 16:33:02 56° ENE 16:38:35 10° NNW
ATLAS 5 CENTAUR R/B 2.9 16:30:18 10° WNW 16:34:45 37° N 16:36:03 32° NE
COSMOS 2455 3.7 16:29:46 10° NW 16:35:19 36° NNE 16:36:35 33° NE
ATLAS 2AS CENTAUR R/B 2.9 16:27:39 10° NW 16:35:21 82° SW 16:38:50 34° SE
Meteor 2-3 Rocket 3.6 16:29:39 10° NNW 16:35:23 69° ENE 16:37:17 43° SE
GEOS 3 Rocket 4.2 16:36:12 26° SSE 16:39:06 55° SW 16:44:25 10° NW
ARGOS 3.2 16:35:50 16° SSE 16:40:19 79° WSW 16:45:48 10° NNW
Lacrosse 5 1.7 16:35:14 10° WNW 16:40:20 84° SSW 16:41:00 67° SE
Cosmos 2278 Rocket 3.8 16:38:01 10° NNW 16:42:15 21° NNE 16:43:08 20° NNE
Cosmos 44 Rocket 4.4 16:38:26 10° SSW 16:41:12 31° S 16:41:12 31° S
Cosmos 1656 4.0 16:39:34 10° SW 16:45:10 67° NW 16:49:12 20° NNE
SL-08 RB Rocket 3.6 16:48:05 79° S 16:48:20 86° WSW 16:52:54 10° NNW
Cosmos 1844 Rocket 3.3 16:44:44 10° NNW 16:50:00 40° NE 16:50:00 40° NE
Cosmos 1689 Rocket 4.5 16:49:48 22° NW 16:50:15 23° WNW 16:52:36 10° WSW
ERBS 3.9 16:48:45 10° WNW 16:50:49 34° W 16:50:49 34° W
Cosmos 2184 Rocket 3.9 16:48:33 10° N 16:54:51 65° ENE 16:55:37 60° ESE
Cosmos 2369 3.6 16:50:07 10° SSW 16:55:51 84° ESE 16:57:13 54° NE
Cosmos 1777 Rocket 4.3 16:51:33 10° NNW 16:56:43 62° WSW 16:58:19 42° S
SJ 16-02 2.5 16:53:55 10° NNW 16:56:44 35° N 16:56:44 35° N
Meteor 2-17 Rocket 4.3 16:52:37 10° NNW 16:58:44 87° ENE 17:00:30 49° SSE
Cosmos 2263 Rocket 2.4 16:56:20 10° NW 17:02:00 68° WSW 17:03:24 50° S
CZ-4C R/B 2.7 16:55:46 10° NW 17:02:32 88° NE 17:04:27 55° SE
RESURS DK-1 4.4 16:59:43 10° NNW 17:01:39 21° N 17:01:39 21° N
COSMO-SKYMED 1 4.5 17:00:24 10° N 17:04:11 30° WNW 17:07:57 10° WSW
SJ-6B 4.3 17:09:34 32° NNW 17:09:34 32° NNW 17:11:54 10° NNW
Cosmos 1844 4.4 17:02:41 10° NNW 17:07:17 41° NNE 17:07:17 41° NNE
Cosmos 2074 Rocket 3.8 17:06:35 10° N 17:12:51 84° ENE 17:13:23 75° SE
Cosmos 1697 Rocket 2.9 17:12:41 10° SW 17:18:17 67° NW 17:19:40 50° N
Cosmos 1898 Rocket 4.3 17:15:15 10° NNW 17:19:10 44° N 17:19:10 44° N
Cosmos 2315 Rocket 4.3 17:22:27 10° SSW 17:28:36 64° WNW 17:34:49 10° N
SPOT 3 Rocket 4.4 17:32:20 43° N 17:32:20 43° N 17:35:51 10° NNW
Resurs 01 Rocket 3.8 17:34:04 19° N 17:34:04 19° N 17:35:23 10° N
Cosmos 1980 Rocket 3.3 17:36:12 10° SW 17:39:22 35° SW 17:39:22 35° SW
Cosmos 2369 Rocket 4.2 17:40:03 10° NW 17:43:55 18° N 17:44:56 17° NNE
Ariane Rocket 4.2 17:53:41 39° W 17:53:41 39° W 17:58:08 10° NNW
Cosmos 2154 Rocket 4.4 17:50:06 10° NNW 17:55:10 60° NNW 17:55:10 60° NNW
SeaSat 1 4.4 18:00:38 22° WSW 18:01:03 22° WSW 18:04:53 10° NW
USA 215 3.8 18:10:10 48° WSW 18:10:10 48° WSW 18:15:36 10° WNW
Cosmos 1943 Rocket 4.2 18:06:38 10° NNW 18:09:41 18° N 18:09:41 18° N
ATLAS 5 CENTAUR R/B 3.8 18:15:09 10° NW 18:17:34 29° NW 18:17:34 29° NW
COSMOS 2455 4.0 18:15:57 10° NW 18:19:43 40° NW 18:19:43 40° NW
Lacrosse 5 4.1 18:18:21 10° WNW 18:20:11 20° W 18:20:11 20° W
ATLAS 2AS CENTAUR R/B 4.2 18:19:18 10° WNW 18:25:23 28° WSW 18:26:16 27° SW
Cosmos 2278 Rocket 4.0 18:22:20 10° NNW 18:24:58 26° NNW 18:24:58 26° NNW
Cosmos 1844 Rocket 4.3 18:28:42 10° NW 18:31:40 31° NW 18:31:40 31° NW
SJ 16-02 4.3 18:32:55 10° NW 18:33:44 14° NW 18:33:44 14° NW
CZ-4C R/B 4.0 18:44:27 10° WNW 18:49:38 35° WSW 18:49:38 35° WSW
ATLAS CENTAUR R/B 4.5 18:52:16 10° WNW 19:13:45 82° WSW 19:13:45 82° WSW
Cosmos 2322 Rocket 4.4 23:31:09 19° NNE 23:31:09 19° NNE 23:35:11 10° ENE
